Hourly Data Report for June 05, 2017

FISHER BRANCH (AUT)
MANITOBA

51°05'00.100" N
97°33'16.200" W
253.00 m
50309J6
71442
WSZ

Download Data

Hourly Data (June 2017)
Hourly Data Report for June 5, 2017
TIME
LST
Temp Definition
°C
Dew Point Definition
°C
Rel Hum Definition
%
Precip. Amount Definition
mm

Wind Dir Definition
10's deg

Wind Spd Definition
km/h
Visibility Definition
km
Stn Press Definition
kPa
Hmdx Definition


Wind Chill Definition


Weather Definition


00:00 12.2 11.0 93 0.0 1 4   98.57     LegendNANA
01:00 11.6 11.1 96 0.0 2 3   98.57     LegendNANA
02:00 10.0 9.5 97 0.0 4 1   98.58     LegendNANA
03:00 10.6 10.2 97 0.0 32 4   98.63     LegendNANA
04:00 9.5 9.1 97 0.0 8 3   98.62     LegendNANA
05:00 10.0 9.6 98 0.0 9 4   98.63     LegendNANA
06:00 12.7 12.3 97 0.0 7 2   98.68     LegendNANA
07:00 16.9 14.6 86 0.0 11 6   98.73     LegendNANA
08:00 19.1 14.5 75 0.0 13 12   98.75     LegendNANA
09:00 21.3 14.1 64 0.0 12 13   98.71 25   LegendNANA
10:00 22.2 13.8 59 0.0 10 12   98.69 25   LegendNANA
11:00 24.0 13.7 53 0.0 11 14   98.67 27   LegendNANA
12:00 25.6 14.1 49 0.0 14 15   98.64 29   LegendNANA
13:00 25.7 14.1 49 0.0 14 16   98.60 29   LegendNANA
14:00 26.5 14.7 48 0.0 12 18   98.56 30   LegendNANA
15:00 26.7 13.7 45 0.0 12 16   98.53 30   LegendNANA
16:00 26.6 14.7 48 0.0 15 16   98.50 30   LegendNANA
17:00 26.6 14.5 47 0.0 13 20   98.47 30   LegendNANA
18:00 26.4 14.3 47 0.0 13 17   98.44 30   LegendNANA
19:00 25.5 13.3 47 0.0 14 16   98.44 28   LegendNANA
20:00 22.8 13.7 56 0.0 11 13   98.42 26   LegendNANA
21:00 19.4 13.3 68 0.0 12 10   98.43     LegendNANA
22:00 18.1 13.3 73 0.0 13 11   98.44     LegendNANA
23:00 17.7 13.2 75 0.0 12 14   98.46     LegendNANA

Notes on Data Quality.

Legend

  • E = Estimated
  • M = Missing
  • NA = Not Available*
  • [empty] = Indicates an unobserved value
Date modified: